Regional Weather Roundup
Issued by NWS

Home | Current Version | Previous Version | Graphics & Text | Print | Product List | Glossary On
Versions: 1 2 3 4 5 6 7 8 9 10 11 12 13 14 15 16 17 18 19 20 21 22 23 24 25 26 27 28 29 30 31 32 33 34 35 36 37 38 39 40 41 42 43 44 45 46 47 48 49 50
000
ASUS43 KOAX 260310
RWRNE

WEATHER ROUNDUP FOR NEBRASKA
NATIONAL WEATHER SERVICE OMAHA NE
1000 PM CDT SAT APR 25 2015

NOTES: SATELLITE DATA IS BEING USED TO AUGMENT CLOUD COVER ABOVE
       12000 FEET.
       "FAIR" INDICATES FEW OR NO CLOUDS BELOW 12,000 FEET WITH NO
       SIGNIFICANT WEATHER AND/OR OBSTRUCTIONS TO VISIBILITY.

  * THESE STATIONS DO NOT REPORT WEATHER SUCH AS RAIN...SNOW OR FOG.

NEZ001>004-019>022-054>056-260400-
NEBRASKA PANHANDLE

CITY           SKY/WX    TMP DP  RH WIND       PRES   REMARKS
SCOTTSBLUFF    CLOUDY    53  47  79 E8        29.75F
ALLIANCE       LGT RAIN  52  46  80 E6        29.82R
CHADRON        LGT RAIN  51  47  86 N9        29.80R
KIMBALL        CLOUDY    49  44  81 SW17      29.82R THUNDER
SIDNEY         LGT RAIN  52  44  74 N12       29.80R
$$

NEZ057>060-069>072-079>082-260400-
SOUTHWEST NEBRASKA

CITY           SKY/WX    TMP DP  RH WIND       PRES   REMARKS
IMPERIAL       MOCLDY    54  47  77 E18       29.76R
LEXINGTON      CLOUDY    51  47  86 E13       29.83R
MCCOOK         CLOUDY    53  47  79 E17       29.79R
OGALLALA       CLOUDY    54  49  85 E14       29.78R
$$

NEZ005>010-023>029-035>040-094-260400-
NORTH CENTRAL NEBRASKA

CITY           SKY/WX    TMP DP  RH WIND       PRES   REMARKS
VALENTINE      CLOUDY    54  45  71 SE9       29.85R
AINSWORTH      MOCLDY    53  46  77 E5        29.85S
BROKEN BOW     CLOUDY    51  45  79 E6        29.84R
O`NEILL        CLOUDY    53  46  77 E6        29.88R
ORD            PTCLDY    49  44  83 E10       29.85R
THEDFORD       CLOUDY    54  47  77 E9        29.85R
$$

NEZ041-046>049-061>064-073>077-083>087-260400-
SOUTH CENTRAL NEBRASKA

CITY           SKY/WX    TMP DP  RH WIND       PRES   REMARKS
GRAND ISLAND   CLOUDY    48  44  86 E10       29.86R
AURORA         CLOUDY    49  47  94 E12       29.85R
HASTINGS       CLOUDY    48  45  89 E12       29.84R
HEBRON         CLOUDY    50  47  89 NE10      29.83R FOG
HOLDREGE       CLOUDY    48  46  91 E13G21    29.83R FOG
KEARNEY *      CLOUDY    48  45  87 E17       29.84R
YORK           CLOUDY    48  46  93 E9G16     29.85R
$$

NEZ011>018-030>034-042>045-260400-
NORTHEAST NEBRASKA

CITY           SKY/WX    TMP DP  RH WIND       PRES   REMARKS
NORFOLK        CLOUDY    52  45  77 E9        29.87R
ALBION         CLOUDY    51  44  77 E9        29.87R
BLAIR          CLOUDY    49  43  78 NE14      29.86R
COLUMBUS *     CLOUDY    50  43  76 E9        29.88R
FREMONT        CLOUDY    52  45  77 NE3       29.87R
TEKAMAH        MOCLDY    49  43  80 E9        29.88R
WAYNE          CLOUDY    53  42  66 E9        29.89R
$$

NEZ050>053-065>068-078-088>093-260400-
SOUTHEAST NEBRASKA

CITY           SKY/WX    TMP DP  RH WIND       PRES   REMARKS
LINCOLN        CLOUDY    50  45  83 NE15      29.87R
OMAHA EPPLEY   CLOUDY    51  44  77 NE10      29.86R
BEATRICE       CLOUDY    49  45  88 NE10G16   29.84R
FALLS CITY     CLOUDY    49  45  86 NE8       29.81R
NEBRASKA CITY  CLOUDY    49  47  93 NE6       29.84R
PLATTSMOUTH    CLOUDY    49  45  83 NE9       29.85R
$$

NEZ044-045-051>053-067-260400-
OMAHA AREA

CITY           SKY/WX    TMP DP  RH WIND       PRES   REMARKS
OMAHA EPPLEY   CLOUDY    51  44  77 NE10      29.86R
BLAIR          CLOUDY    49  43  78 NE14      29.86R
FREMONT        CLOUDY    52  45  77 NE3       29.87R
MILLARD        CLOUDY    52  44  75 NE6       29.86R
PLATTSMOUTH    CLOUDY    49  45  83 NE9       29.85R
WAHOO          CLOUDY    50  44  79 NE7       29.86R
$$



USA.gov is the U.S. government's official web portal to all federal, state and local government web resources and services.